Terminal Aerodrome Forecast
Issued by NWS

Home | Current Version | Previous Version | Text Only | Print | Product List | Glossary On
Versions: 1 2 3 4 5 6 7 8 9 10 11 12 13 14 15 16 17 18 19 20 21 22 23 24 25 26 27 28 29 30 31 32 33 34 35 36 37 38 39 40 41 42 43
000
FTUS45 KBOU 021126
TAFAPA
TAF
KAPA 021126Z 0212/0312 36012G21KT P6SM VCSH SCT020 BKN050
     FM021300 01012G20KT P6SM SCT010 BKN020 BKN080
      TEMPO 0213/0215 -SHRA
     FM021600 03010KT P6SM SCT025 SCT080 BKN140
     FM021800 05008KT P6SM SCT045 BKN140
     FM022000 06011KT P6SM SCT070 BKN120
      TEMPO 0222/0302 VRB20G32KT -TSRA BKN050CB
     FM030300 15008KT P6SM SCT080 BKN140
     FM030600 19007KT P6SM SCT120 BKN200=

USA.gov is the U.S. government's official web portal to all federal, state and local government web resources and services.